• En España
  • Lista de países
  • Para 7 días
  • Temperatura del agua
  • Mapa Satelital
  • El tiempo en el mapa
  • Informadores
  • user-avatar
    Iniciar sesión

    Tiempo cada hora Dubniki

    Hoy, 21 Junio, Jueves

    Tiempo Temperatura Precipitaciones Viento Presión Humedad
    00:00 +10°C° 0 mm 5 mps 733 mmHg 73%
    01:00 +10°C° 0 mm 6 mps 733 mmHg 73%
    02:00 +10°C° 0 mm 6 mps 733 mmHg 73%
    03:00 +9°C° 0 mm 5 mps 733 mmHg 78%
    04:00 +10°C° 0 mm 6 mps 733 mmHg 77%
    05:00 +11°C° 0 mm 7 mps 733 mmHg 75%
    06:00 +11°C° 0 mm 8 mps 733 mmHg 74%
    07:00 +12°C° 0,1 mm 8 mps 733 mmHg 71%
    08:00 +13°C° 0,1 mm 9 mps 733 mmHg 68%
    09:00 +14°C° 0 mm 10 mps 733 mmHg 64%
    10:00 +16°C° 0,2 mm 10 mps 733 mmHg 62%
    11:00 +16°C° 0,2 mm 10 mps 733 mmHg 60%
    12:00 +17°C° 0,2 mm 10 mps 733 mmHg 58%
    13:00 +17°C° 0,2 mm 9 mps 733 mmHg 60%
    14:00 +17°C° 0,2 mm 8 mps 733 mmHg 61%
    15:00 +16°C° 0 mm 7 mps 733 mmHg 65%
    16:00 +15°C° 0,5 mm 6 mps 734 mmHg 71%
    17:00 +14°C° 0,5 mm 5 mps 734 mmHg 77%
    18:00 +14°C° 0,5 mm 4 mps 734 mmHg 83%
    19:00 +13°C° 0,1 mm 4 mps 734 mmHg 82%
    20:00 +13°C° 0,1 mm 4 mps 735 mmHg 81%
    21:00 +13°C° 0,1 mm 4 mps 735 mmHg 80%
    22:00 +13°C° 0 mm 5 mps 735 mmHg 79%
    23:00 +13°C° 0 mm 5 mps 736 mmHg 77%

    Mañana, 22 Junio, Viernes

    Tiempo Temperatura Precipitaciones Viento Presión Humedad
    00:00 +13°C° 0 mm 5 mps 736 mmHg 76%
    01:00 +12°C° 0 mm 5 mps 736 mmHg 76%
    02:00 +12°C° 0 mm 5 mps 737 mmHg 76%
    03:00 +11°C° 0 mm 6 mps 738 mmHg 77%
    04:00 +11°C° 0 mm 6 mps 738 mmHg 76%
    05:00 +13°C° 0 mm 6 mps 738 mmHg 75%
    06:00 +13°C° 0 mm 6 mps 739 mmHg 75%
    07:00 +15°C° 0 mm 6 mps 739 mmHg 70%
    08:00 +16°C° 0 mm 6 mps 740 mmHg 65%
    09:00 +17°C° 0 mm 7 mps 740 mmHg 60%
    10:00 +19°C° 0 mm 6 mps 740 mmHg 57%
    11:00 +20°C° 0 mm 6 mps 741 mmHg 55%
    12:00 +21°C° 0 mm 6 mps 741 mmHg 52%
    13:00 +22°C° 0 mm 6 mps 741 mmHg 52%
    14:00 +22°C° 0 mm 5 mps 741 mmHg 52%
    15:00 +23°C° 0 mm 5 mps 741 mmHg 52%
    16:00 +22°C° 0 mm 4 mps 741 mmHg 56%
    17:00 +22°C° 0 mm 3 mps 741 mmHg 61%
    18:00 +23°C° 0 mm 2 mps 741 mmHg 65%
    19:00 +20°C° 0 mm 2 mps 741 mmHg 69%
    20:00 +18°C° 0 mm 2 mps 741 mmHg 74%
    21:00 +16°C° 0 mm 2 mps 741 mmHg 78%
    22:00 +16°C° 0 mm 2 mps 742 mmHg 78%
    23:00 +15°C° 0 mm 1 mps 742 mmHg 79%

    Pasado mañana, 23 Junio, Sábado

    Tiempo Temperatura Precipitaciones Viento Presión Humedad
    00:00 +15°C° 0 mm 1 mps 742 mmHg 80%
    01:00 +15°C° 0 mm 1 mps 742 mmHg 81%
    02:00 +15°C° 0 mm 1 mps 742 mmHg 82%
    03:00 +15°C° 0 mm 1 mps 742 mmHg 84%
    04:00 +16°C° 0 mm 1 mps 742 mmHg 83%
    05:00 +18°C° 0 mm 1 mps 742 mmHg 82%
    06:00 +19°C° 0 mm 2 mps 742 mmHg 81%
    07:00 +21°C° 0 mm 2 mps 742 mmHg 77%
    08:00 +23°C° 0 mm 2 mps 742 mmHg 73%
    09:00 +25°C° 0 mm 2 mps 743 mmHg 69%
    10:00 +26°C° 0,3 mm 2 mps 742 mmHg 67%
    11:00 +27°C° 0,3 mm 3 mps 742 mmHg 65%
    12:00 +28°C° 0,3 mm 3 mps 742 mmHg 63%
    13:00 +28°C° 0,4 mm 3 mps 742 mmHg 64%
    14:00 +28°C° 0,4 mm 3 mps 742 mmHg 66%
    15:00 +28°C° 0,4 mm 3 mps 742 mmHg 67%
    16:00 +27°C° 0,4 mm 2 mps 742 mmHg 71%
    17:00 +27°C° 0,4 mm 2 mps 742 mmHg 75%
    18:00 +27°C° 0,4 mm 2 mps 742 mmHg 79%
    19:00 +25°C° 0,1 mm 1 mps 742 mmHg 83%
    20:00 +24°C° 0,1 mm 1 mps 742 mmHg 87%
    21:00 +22°C° 0,1 mm 1 mps 742 mmHg 90%
    22:00 +22°C° 0,4 mm 1 mps 742 mmHg 91%
    23:00 +21°C° 0,4 mm 1 mps 743 mmHg 92%

    24 Junio, Domingo

    Tiempo Temperatura Precipitaciones Viento Presión Humedad
    00:00 +21°C° 0,4 mm 1 mps 743 mmHg 93%
    01:00 +21°C° 0 mm 1 mps 743 mmHg 93%
    02:00 +18°C° 0 mm 0 mps 743 mmHg 93%
    03:00 +18°C° 0 mm 0 mps 743 mmHg 93%
    04:00 +19°C° 0 mm 0 mps 743 mmHg 91%
    05:00 +20°C° 0 mm 0 mps 744 mmHg 89%
    06:00 +22°C° 0 mm 0 mps 744 mmHg 87%
    07:00 +23°C° 0 mm 0 mps 744 mmHg 81%
    08:00 +25°C° 0 mm 0 mps 744 mmHg 76%
    09:00 +26°C° 0 mm 0 mps 744 mmHg 71%
    10:00 +27°C° 0,2 mm 0 mps 744 mmHg 67%
    11:00 +28°C° 0,2 mm 0 mps 744 mmHg 64%
    12:00 +28°C° 0,2 mm 0 mps 744 mmHg 60%
    13:00 +28°C° 0,3 mm 0 mps 744 mmHg 59%
    14:00 +29°C° 0,3 mm 0 mps 744 mmHg 58%
    15:00 +29°C° 0,3 mm 0 mps 744 mmHg 58%
    16:00 +30°C° 0,3 mm 1 mps 744 mmHg 61%
    17:00 +30°C° 0,3 mm 1 mps 744 mmHg 65%
    18:00 +30°C° 0,3 mm 1 mps 744 mmHg 68%
    19:00 +28°C° 0 mm 1 mps 744 mmHg 73%
    20:00 +26°C° 0 mm 1 mps 745 mmHg 77%
    21:00 +24°C° 0 mm 1 mps 745 mmHg 82%
    22:00 +23°C° 0 mm 1 mps 745 mmHg 84%
    23:00 +23°C° 0 mm 1 mps 745 mmHg 86%

    25 Junio, Lunes

    Tiempo Temperatura Precipitaciones Viento Presión Humedad
    00:00 +22°C° 0 mm 1 mps 745 mmHg 88%
    01:00 +22°C° 0 mm 1 mps 745 mmHg 88%
    02:00 +21°C° 0 mm 1 mps 745 mmHg 88%
    03:00 +21°C° 0 mm 1 mps 746 mmHg 88%
    04:00 +22°C° 0 mm 1 mps 746 mmHg 84%
    05:00 +24°C° 0 mm 1 mps 746 mmHg 81%
    06:00 +25°C° 0 mm 1 mps 746 mmHg 78%
    07:00 +26°C° 0 mm 1 mps 746 mmHg 73%
    08:00 +28°C° 0 mm 1 mps 746 mmHg 68%
    09:00 +29°C° 0 mm 1 mps 746 mmHg 63%
    10:00 +30°C° 0 mm 1 mps 746 mmHg 59%
    11:00 +31°C° 0 mm 1 mps 746 mmHg 56%
    12:00 +31°C° 0 mm 1 mps 746 mmHg 52%
    13:00 +31°C° 0,1 mm 1 mps 746 mmHg 54%
    14:00 +31°C° 0,1 mm 1 mps 746 mmHg 56%
    15:00 +30°C° 0,1 mm 1 mps 746 mmHg 58%
    16:00 +30°C° 0,1 mm 1 mps 746 mmHg 61%
    17:00 +30°C° 0,1 mm 1 mps 746 mmHg 64%
    18:00 +29°C° 0,1 mm 1 mps 746 mmHg 67%
    19:00 +28°C° 0,1 mm 1 mps 746 mmHg 71%
    20:00 +26°C° 0,1 mm 1 mps 746 mmHg 74%
    21:00 +24°C° 0,1 mm 2 mps 747 mmHg 77%
    22:00 +23°C° 0,3 mm 2 mps 747 mmHg 80%
    23:00 +21°C° 0,3 mm 2 mps 747 mmHg 83%

    26 Junio, Martes

    Tiempo Temperatura Precipitaciones Viento Presión Humedad
    00:00 +21°C° 0,3 mm 2 mps 746 mmHg 86%
    01:00 +20°C° 0,2 mm 2 mps 747 mmHg 88%
    02:00 +20°C° 0,2 mm 2 mps 747 mmHg 89%
    03:00 +19°C° 0,2 mm 2 mps 747 mmHg 91%
    04:00 +20°C° 0 mm 2 mps 747 mmHg 89%
    05:00 +21°C° 0 mm 2 mps 747 mmHg 87%
    06:00 +23°C° 0 mm 2 mps 748 mmHg 85%
    07:00 +24°C° 0,1 mm 3 mps 748 mmHg 80%
    08:00 +25°C° 0,1 mm 3 mps 748 mmHg 76%
    09:00 +26°C° 0,1 mm 3 mps 748 mmHg 71%
    10:00 +27°C° 0 mm 3 mps 748 mmHg 66%
    11:00 +28°C° 0 mm 3 mps 748 mmHg 62%
    12:00 +29°C° 0 mm 2 mps 748 mmHg 58%
    13:00 +29°C° 0 mm 2 mps 748 mmHg 58%
    14:00 +29°C° 0 mm 2 mps 749 mmHg 58%
    15:00 +29°C° 0 mm 2 mps 749 mmHg 58%
    16:00 +29°C° 0,1 mm 2 mps 749 mmHg 62%
    17:00 +28°C° 0,1 mm 2 mps 749 mmHg 66%
    18:00 +28°C° 0,1 mm 2 mps 749 mmHg 70%
    19:00 +26°C° 0 mm 2 mps 749 mmHg 74%
    20:00 +24°C° 0 mm 2 mps 749 mmHg 79%
    21:00 +23°C° 0 mm 2 mps 749 mmHg 83%
    22:00 +21°C° 0 mm 2 mps 749 mmHg 83%
    23:00 +20°C° 0 mm 2 mps 749 mmHg 84%
    Mostrar más